Weather History for Brno, Czech Republic

Change the Weather History Date:

Thursday, January 3, 2013

  Actual Average Record
Temperature  
Mean Temperature 30 °F -  
Max Temperature 39 °F 33 °F - ()
Min Temperature 21 °F 23 °F - ()
Degree Days  
Heating Degree Days 35    
Moisture  
Dew Point 30 °F    
Average Humidity 90    
Maximum Humidity 100    
Minimum Humidity 77    
Precipitation  
Precipitation 0.00 in 0.03 in - ()
Sea Level Pressure  
Sea Level Pressure 30.37 in    
Wind  
Wind Speed 5 mph ()    
Max Wind Speed 15 mph    
Max Gust Speed -    
Visibility 5.3 miles    
Events Fog , Rain , Snow    
T = Trace of Precipitation, MM = Missing Value Source: Averaged Metar Reports

Daily Weather History Graph

Daily Weather History Graph

Search for Another Location

Airport:

Trip Planner

Search our weather history database for the weather conditions in past years. The results will help you decide how hot, cold, wet, or windy it might be!

Date:

Astronomy

Jan. 03, 2013 Rise Set
Actual Time 7:47 AM CET 4:08 PM CET
Civil Twilight 7:10 AM CET 4:45 PM CET
Nautical Twilight 6:30 AM CET 5:25 PM CET
Astronomical Twilight 5:51 AM CET 6:04 PM CET
Moon 11:01 PM CET (1/3) 10:16 AM CET (1/3)
Length of Visible Light 9h 34m
Length of Day
8h 20m
Waning Gibbous, 68% of the Moon is Illuminated
Jan 3
Waning Gibbous
Jan 5
Last Quarter
Jan 11
New
Jan 19
First Quarter
Jan 27
Full

Hourly Weather History & Observations

Time (CET) Temp. Windchill Dew Point Humidity Pressure Visibility Wind Dir Wind Speed Gust Speed Precip Events Conditions
12:00 AM 26.6 °F 20.0 °F 26.6 °F 100% 30.42 in 0.2 mi ENE 5.8 mph - N/A Fog Light Freezing Fog
12:30 AM 26.6 °F 21.2 °F 24.8 °F 93% 30.42 in 0.4 mi NE 4.6 mph - N/A Fog Light Freezing Fog
1:00 AM 28 °F - 25 °F 84% 30.48 in 2 mi NNE 4.5 mph - - Fog Light Fog
1:00 AM 26.6 °F 21.2 °F 26.6 °F 100% 30.42 in 1.9 mi NE 4.6 mph - N/A   Partly Cloudy
1:30 AM 28.4 °F - 26.6 °F 93% 30.42 in 2.5 mi NNE 2.3 mph - N/A   Mist
2:00 AM 26.6 °F - 26.6 °F 100% 30.42 in 3.1 mi NE 2.3 mph - N/A   Mist
2:30 AM 24.8 °F - 24.8 °F 100% 30.42 in 3.1 mi ENE 2.3 mph - N/A   Mist
3:00 AM 26.6 °F - 24.8 °F 93% 30.42 in 3.7 mi Calm Calm - N/A   Unknown
3:30 AM 26.6 °F - 24.8 °F 93% 30.42 in 4.3 mi NE 2.3 mph - N/A   Unknown
4:00 AM 23.0 °F - 23.0 °F 100% 30.42 in 4.3 mi Variable 1.2 mph - N/A   Unknown
4:30 AM 23.0 °F - 21.2 °F 93% 30.42 in 4.3 mi Variable 2.3 mph - N/A   Unknown
5:00 AM 21.2 °F - 19.4 °F 93% 30.42 in 3.7 mi South 2.3 mph - N/A   Unknown
5:30 AM 24.8 °F - 23.0 °F 93% 30.42 in 3.1 mi Variable 2.3 mph - N/A   Partly Cloudy
5:32 AM 23.0 °F - 23.0 °F 100% 30.42 in 3.1 mi Variable 2.3 mph - N/A   Partly Cloudy
6:00 AM 23.0 °F - 23.0 °F 100% 30.42 in 2.8 mi Variable 1.2 mph - N/A   Mist
6:30 AM 24.8 °F - 23.0 °F 93% 30.42 in 3.7 mi Variable 1.2 mph - N/A   Unknown
7:00 AM 27 °F - 25 °F 87% 30.49 in 4 mi NE 4.5 mph - -   Mist
7:00 AM 26.6 °F 22.6 °F 24.8 °F 93% 30.42 in 4.3 mi NNE 3.5 mph - N/A   Unknown
7:30 AM 26.6 °F 22.6 °F 24.8 °F 93% 30.42 in 4.3 mi East 3.5 mph - N/A   Unknown
8:00 AM 26.6 °F - 24.8 °F 93% 30.42 in 5.6 mi Variable 1.2 mph - N/A   Unknown
8:30 AM 28.4 °F - 26.6 °F 93% 30.42 in - Variable 2.3 mph - N/A   Clear
9:00 AM 30.2 °F 23.4 °F 30.2 °F 100% 30.42 in - SW 6.9 mph - N/A   Clear
9:30 AM 32.0 °F 24.8 °F 30.2 °F 93% 30.42 in 6.2 mi SSW 8.1 mph - N/A   Partly Cloudy
10:00 AM 32.0 °F 26.4 °F 30.2 °F 93% 30.42 in - SSW 5.8 mph - N/A   Clear
10:30 AM 32.0 °F 26.4 °F 30.2 °F 93% 30.39 in - SSW 5.8 mph - N/A   Clear
11:00 AM 33.8 °F 29.6 °F 30.2 °F 87% 30.39 in - SW 4.6 mph - N/A   Clear
11:23 AM 33.8 °F 28.6 °F 30.2 °F 87% 30.36 in 6.2 mi SW 5.8 mph - N/A Snow Light Snow
11:30 AM 33.8 °F 28.6 °F 30.2 °F 87% 30.36 in 6.2 mi SW 5.8 mph - N/A Snow Light Snow
12:00 PM 35.6 °F 29.2 °F 30.2 °F 81% 30.36 in 6.2 mi SW 8.1 mph - N/A Snow Light Snow
12:30 PM 35.6 °F 29.2 °F 30.2 °F 81% 30.36 in 6.2 mi SW 8.1 mph - N/A Snow Light Snow
1:00 PM 35 °F - 30 °F 77% 30.39 in 9 mi SW 8.9 mph - - Snow Light Snow
1:00 PM 35.6 °F 29.9 °F 30.2 °F 81% 30.33 in 6.2 mi SW 6.9 mph - N/A Snow Light Snow
1:30 PM 35.6 °F 31.7 °F 32.0 °F 87% 30.33 in 6.2 mi SW 4.6 mph - N/A Rain , Snow Light Rain
1:37 PM 35.6 °F 30.7 °F 30.2 °F 81% 30.33 in 6.2 mi SW 5.8 mph - N/A Rain , Snow Light Rain
2:00 PM 35.6 °F 30.7 °F 32.0 °F 87% 30.33 in 6.2 mi SSW 5.8 mph - N/A   Mostly Cloudy
2:30 PM 35.6 °F 30.7 °F 32.0 °F 87% 30.30 in 6.2 mi SW 5.8 mph - N/A   Mostly Cloudy
3:00 PM 35.6 °F 32.8 °F 32.0 °F 87% 30.33 in 6.2 mi ENE 3.5 mph - N/A   Overcast
3:30 PM 35.6 °F 32.8 °F 32.0 °F 87% 30.33 in 6.2 mi ESE 3.5 mph - N/A   Overcast
4:00 PM 33.8 °F 28.6 °F 32.0 °F 93% 30.33 in 6.2 mi South 5.8 mph - N/A   Overcast
4:30 PM 37.4 °F 32.1 °F 32.0 °F 81% 30.33 in 6.2 mi SSW 6.9 mph - N/A   Overcast
5:00 PM 37.4 °F 32.1 °F 32.0 °F 81% 30.33 in 6.2 mi SW 6.9 mph - N/A   Overcast
5:20 PM 37.4 °F 32.1 °F 32.0 °F 81% 30.33 in 6.2 mi SSW 6.9 mph - N/A   Overcast
5:30 PM 37.4 °F 31.4 °F 32.0 °F 81% 30.33 in 6.2 mi SSW 8.1 mph - N/A Rain Light Rain
6:00 PM 37.4 °F 31.4 °F 33.8 °F 87% 30.33 in 6.2 mi SSW 8.1 mph - N/A   Overcast
6:21 PM 37.4 °F 30.8 °F 33.8 °F 87% 30.33 in 6.2 mi South 9.2 mph - N/A   Overcast
6:30 PM 37.4 °F 30.8 °F 33.8 °F 87% 30.33 in 6.2 mi South 9.2 mph - N/A   Overcast
7:00 PM 38 °F - 34 °F 78% 30.38 in 16 mi South 8.9 mph - -   Partly Cloudy
7:00 PM 37.4 °F 30.3 °F 33.8 °F 87% 30.33 in 6.2 mi South 10.4 mph - N/A   Overcast
7:30 PM 37.4 °F 30.8 °F 33.8 °F 87% 30.33 in 6.2 mi South 9.2 mph - N/A   Overcast
8:00 PM 37.4 °F 30.8 °F 33.8 °F 87% 30.33 in 6.2 mi SW 9.2 mph - N/A   Overcast
8:30 PM 37.4 °F 30.8 °F 33.8 °F 87% 30.33 in 6.2 mi SW 9.2 mph - N/A   Overcast
9:00 PM 39.2 °F 32.5 °F 33.8 °F 81% 30.33 in 6.2 mi SW 10.4 mph - N/A   Overcast
9:09 PM 39.2 °F 32.0 °F 35.6 °F 87% 30.33 in 6.2 mi SW 11.5 mph - N/A Rain Light Rain
9:30 PM 37.4 °F 30.3 °F 35.6 °F 93% 30.33 in 6.2 mi SW 10.4 mph - N/A Rain Light Rain
9:49 PM 37.4 °F 30.3 °F 35.6 °F 93% 30.33 in 6.2 mi SW 10.4 mph - N/A Rain Light Rain
10:00 PM 37.4 °F 30.3 °F 35.6 °F 93% 30.33 in 6.2 mi SW 10.4 mph - N/A Rain Light Rain
10:30 PM 37.4 °F 29.3 °F 35.6 °F 93% 30.33 in 6.2 mi SW 12.7 mph - N/A   Overcast
11:00 PM 39.2 °F 30.8 °F 35.6 °F 87% 30.30 in 6.2 mi WSW 15.0 mph - N/A   Overcast
11:30 PM 39.2 °F 30.8 °F 35.6 °F 87% 30.30 in 6.2 mi WSW 15.0 mph - N/A   Overcast